#timestamp,LO_Frequency,Hit 
1504263615.0,286046996.3,N
1504263616.0,286046996.3,N
1504263635.8,286046994.8,N
1504263655.6,286046992.3,N
1504263675.4,286046993.3,N
1504263695.3,286046995.9,N
1504263715.1,286046993.7,N
1504263735.8,286046990.9,N
1504263755.7,286046990.9,N
1504263775.5,286046993.1,N
1504263795.3,286046993.6,N
1504263815.2,286046993.8,N
1504263835.9,286046993.3,N
1504263855.7,286046997.5,N
1504263875.6,286046997.4,N
1504263895.4,286046999.6,N
1504263915.2,286047000.3,N
1504263935.0,286046997.7,N
1504263936.0,286046997.7,N
1504263955.8,286046996.0,N
1504263975.6,286046998.8,N
1504263995.4,286046996.4,N
1504264015.3,286046990.5,N
1504264035.1,286046994.1,N
1504264055.8,286046998.2,N
1504264075.7,286047007.4,N
1504264095.5,286047007.2,N
1504264115.3,286047006.9,N
1504264135.2,286047004.7,N
1504264155.9,286047000.8,N
1504264175.7,286046997.0,N
1504264195.6,286046996.5,N
1504264215.4,286046998.7,N
1504264235.2,286046999.2,N
1504264255.0,286047002.3,N
1504264256.0,286047002.3,N
1504264275.8,286047002.2,N
1504264295.6,286047004.3,N
1504264315.4,286047005.5,N
1504264335.3,286047005.0,N
1504264355.1,286047003.2,N
1504264375.8,286047005.4,N
1504264395.7,286047007.2,N
1504264415.5,286047005.5,N
1504264435.3,286047005.9,N
1504264455.2,286047004.2,N
1504264475.9,286047001.4,N
1504264495.7,286047001.5,N
1504264515.6,286047002.2,N
1504264535.4,286047003.9,N
1504264555.2,286047003.7,N
1504264575.0,286047003.8,N
1504264576.0,286047003.8,N
1504264595.8,286047001.8,N
1504264615.6,286047002.8,N
1504264635.4,286047002.6,N
1504264655.3,286047004.3,N
1504264675.1,286047001.4,N
1504264695.8,286046999.2,N
1504264715.7,286046998.0,N
1504264735.5,286046995.7,N
1504264755.3,286046996.1,N
1504264775.2,286046997.9,N
1504264795.9,286046996.5,N
1504264815.7,286046996.8,N
1504264835.6,286046999.9,N
1504264855.4,286047002.4,N
1504264875.2,286047000.1,N
1504264895.1,286047001.6,N
1504264896.0,286047001.6,N
1504264915.8,286047005.4,N
1504264935.6,286047003.3,N
1504264955.4,286046999.7,N
1504264975.3,286047004.8,N
1504264995.1,286047003.0,N
1504265015.8,286047001.4,N
1504265035.7,286046999.7,N
1504265055.5,286047002.2,N
1504265075.3,286047002.5,N
1504265095.2,286047000.1,N
1504265115.9,286047004.2,N
1504265135.7,286047003.3,N
1504265155.6,286047001.7,N
1504265175.4,286047005.0,N
1504265195.2,286047006.0,N
1504265215.1,286047002.5,N
1504265216.0,286047002.5,N
1504265235.8,286047008.2,N
1504265255.6,286047004.6,N
1504265275.5,286047002.0,N
1504265295.3,286047000.3,N
1504265315.1,286047000.1,N
1504265335.9,286047010.4,P
1504265355.7,286047012.0,N
1504265375.5,286047007.4,N
1504265395.3,286047001.7,N
1504265415.2,286047000.3,N
1504265435.0,286047001.6,N
1504265435.9,286047001.6,N
1504265455.7,286047004.0,N
1504265475.6,286047000.6,N
1504265495.4,286047000.1,N
1504265515.2,286046998.7,N
1504265535.1,286047003.6,N
1504265536.0,286047003.6,N
1504265555.8,286047001.9,N
1504265575.6,286046998.1,N
1504265595.5,286046996.5,N
1504265615.3,286046997.2,N
1504265635.1,286047001.7,N
1504265655.9,286047005.5,N
1504265675.7,286047002.4,N
1504265695.5,286046999.4,N
1504265715.3,286046999.2,N
1504265735.2,286046997.0,N
1504265755.0,286046995.8,N
1504265755.9,286046995.8,N
1504265775.7,286046995.9,N
1504265795.6,286046996.8,N
1504265815.4,286047000.2,N
1504265835.2,286047005.4,N
1504265855.1,286047004.8,N
1504265856.0,286047004.8,N
1504265875.8,286047005.6,N
1504265895.6,286047005.6,N
1504265915.5,286047002.7,N
1504265935.3,286046997.2,N
1504265955.1,286047001.3,N
1504265975.9,286047001.9,N
1504265995.7,286047003.9,N
1504266015.5,286046999.7,N
1504266035.3,286046997.1,N
1504266055.2,286046996.9,N
1504266075.0,286046998.5,N
1504266075.9,286046998.5,N
1504266095.7,286046996.8,N
1504266115.6,286046998.1,N
1504266135.4,286046999.6,N
1504266155.2,286047002.2,N
1504266175.1,286047000.2,N
1504266176.0,286047000.2,N
1504266195.8,286046997.4,N
1504266215.6,286046995.5,N
1504266235.5,286046993.8,N
1504266255.3,286046991.2,N
1504266275.1,286046993.1,N
1504266295.9,286046993.1,N
1504266315.7,286046992.9,N
1504266335.5,286046995.3,N
1504266355.4,286047001.2,N
1504266375.2,286047001.9,N
1504266395.0,286047004.3,N
1504266395.9,286047004.3,N
1504266415.8,286047008.9,N
1504266435.6,286047005.5,N
1504266455.4,286047005.4,N
1504266475.2,286047001.7,N
1504266495.1,286047005.2,N
1504266496.0,286047005.2,N
1504266515.8,286047005.0,N
1504266535.6,286047003.6,N
1504266555.5,286047000.2,N
1504266575.3,286047002.8,N
1504266595.1,286046998.5,N
1504266615.9,286046999.3,N
1504266635.7,286047002.1,N
1504266655.5,286047004.6,N
1504266675.4,286047006.5,N
1504266695.2,286047007.4,N
1504266715.0,286047011.5,N
1504266715.9,286047011.5,N
1504266735.8,286047021.1,P
1504266755.6,286047026.4,N
1504266775.4,286047021.1,N
1504266795.3,286047016.5,N
1504266815.1,286047015.3,N
1504266816.0,286047015.3,N
1504266835.8,286047013.1,N
1504266855.7,286047011.1,N
1504266875.5,286047009.8,N
1504266895.3,286047006.8,N
1504266915.2,286047006.2,N
1504266935.9,286047007.9,N
1504266955.7,286047004.9,N
1504266975.5,286047002.6,N
1504266995.4,286047002.8,N
1504267015.2,286047002.7,N
1504267035.0,286046998.5,N
1504267035.9,286046998.5,N
1504267055.8,286046999.9,N
1504267075.6,286047004.4,N
1504267095.4,286047004.0,N
1504267115.3,286047000.5,N
1504267135.1,286047000.6,N
1504267155.8,286047000.6,N
1504267175.7,286047001.8,N
1504267195.5,286046999.7,N
